Flag Weather past 2 weeks in Kamloops, British Columbia, Canada

Now
36 °F

Light rain. Mostly cloudy.


Feels Like: 36 °F
Forecast: 34 / 41 °F
Wind: 2 mph from Northeast

Location: Kamloops

Current Time: Nov 25, 2014 at 6:02:40 PM

Latest Report: Nov 25, 2014 at 5:00 PM


Visibility: 10 mi

Pressure: 30.29 "Hg

Humidity: 93%

Dew point: 34 °F

Location of KamloopsLocation

Historic Weather in Kamloops — Graph

°F

Kamloops temperature yesterday

Maximum temperature yesterday: 39 °F (at 6:00 PM)
Minimum temperature yesterday: 23 °F (at 2:00 AM)
Average temperature yesterday: 31 °F

Past Weeks' High & Low Weather Summary

 TemperatureHumidityPressure
High45 °F (Nov 22, 1:00 PM)100% (Nov 23, 2:00 AM)30.82 "Hg (Nov 23, 2:00 AM)
Low9 °F (Nov 15, 5:00 AM)32% (Nov 11, 1:00 PM)29.27 "Hg (Nov 21, 10:00 PM)
Average27 °F72%30.30 "Hg
* Reported Nov 10 5:00 PM — Nov 25 5:00 PM, Kamloops, Weather by CustomWeather, © 2014

Note: Actual official high and low records may vary slightly from our data, if they occured in-between our weather recording intervals... More about our weather records

Advertising

Kamloops weather history for previous 24 hours

 ConditionsComfort  
Time TempWeatherWind HumidityBarometerVisibility
5:00 PM
Nov 25
36 °FLight rain. Mostly cloudy.2 mph93%30.29 "Hg10 mi
4:00 PM37 °FMore clouds than sun.3 mph87%30.29 "Hg10 mi
3:00 PM37 °FMore clouds than sun.2 mph93%30.28 "Hg20 mi
2:00 PM37 °FMostly cloudy.2 mph87%30.29 "Hg40 mi
1:00 PM37 °FMostly cloudy.No wind93%30.29 "Hg40 mi
12:00 PM37 °FMostly cloudy.3 mph93%30.28 "Hg40 mi
11:00 AM37 °FMostly cloudy.5 mph87%30.29 "Hg40 mi
10:50 AM37 °FMostly cloudy.5 mph93%30.28 "Hg40 mi
10:00 AM36 °FMore clouds than sun.3 mph93%30.29 "Hg40 mi
9:00 AM36 °FMostly cloudy.3 mph93%30.27 "Hg40 mi
8:00 AM36 °FMostly cloudy.No wind93%30.25 "Hg40 mi
7:00 AM34 °FOvercast.2 mph93%30.23 "Hg40 mi
6:00 AM37 °FPartly cloudy.3 mph87%30.21 "Hg40 mi
5:00 AM37 °FPartly cloudy.12 mph87%30.20 "Hg40 mi
4:00 AM37 °FPassing clouds.12 mph87%30.17 "Hg30 mi
3:00 AM37 °FMostly cloudy.3 mph87%30.16 "Hg30 mi
2:00 AM36 °FMostly cloudy.2 mph93%30.15 "Hg30 mi
1:00 AM36 °FMostly cloudy.2 mph93%30.13 "Hg30 mi
12:00 AM36 °FMostly cloudy.5 mph93%30.11 "Hg40 mi
11:54 PM
Nov 24
36 °FMostly cloudy.6 mph93%30.11 "Hg30 mi
11:00 PM37 °FMostly cloudy.3 mph87%30.08 "Hg30 mi
10:00 PM36 °FMostly cloudy.5 mph87%30.03 "Hg30 mi
9:46 PM36 °FMostly cloudy.2 mph87%30.02 "Hg30 mi
9:00 PM36 °FLight snow. Overcast.No wind87%30.01 "Hg30 mi
8:00 PM34 °FOvercast.3 mph93%30.02 "Hg30 mi
7:00 PM36 °FMostly cloudy.3 mph87%30.02 "Hg30 mi
6:00 PM39 °FOvercast.9 mph75%30.04 "Hg30 mi
Weather by CustomWeather, © 2014

See weather overviewHow to use our weather pages